C/2017 E1 ( Borisov )

Japanese version
Home page
Updated on January 8, 2018

---------------------------------------------------------------------

* Profile

Discovery Date March 1, 2017
Magnitude 17.0 mag
Discoverer Gennadii Vladimirovich Borisov (Nauchnij, Crimea)

* Pictures

* Orbital Elements

Epoch 2017 Mar. 28.0 TT = JDT 2457840.5
T 2017 Apr. 10.13851 TT                                 MPCW
q   0.9006618            (2000.0)            P               Q
z  -0.0028576      Peri.  152.47304     +0.43485739     +0.88754978
 +/-0.0000202      Node   142.73315     -0.86548949     +0.45860001
e   1.0025738      Incl.   14.55412     -0.24865035     -0.04406150
From 158 observations 2017 Mar. 1-June 25, mean residual 0".6.

* Finding Charts

* Magnitudes Graph

        m1 = 10.5 + 5 log d + 15.0 log r

---------------------------------------------------------------------

The orbital elements are published on M.P.E.C. 2017-T14.
The charts are made with StellaNavigator Ver.10 (AstroArts).
The magnitudes graphs are made with Comet for Windows.

---------------------------------------------------------------------

Copyright(C) Seiichi Yoshida (comet@aerith.net). All rights reserved.